Content
SEND FEEDBACK

Daily
Averages
Monthly
Summary
United Kingdom

LONDON, ENGLAND


Home > Europe > United Kingdom > England
Elevation: 203 feet     Latitude: 51 09N     Longitude: 000 11W

WEATHER
 
SELECT A DAY
Number of Records: 292,605;   Date Range: 7/1/96 - 7/20/14
 
SHARE

PRINT THIS DATA

[ ← Previous Day ]
WEATHER ALMANAC - JUNE 20, 2013
[ Next Day → ]
[ °C ]   °F
We're sorry. There is no daily almanac available for London, England on June 20, 2013.
WEATHER BY HOUR - JUNE 20, 2013
[ °C ]   °F
Local TimeTemperatureDewpointHumidityBarometerVisibilityWind DirectionWind SpeedGust SpeedPrecipitationEventsConditions
12:50 AM62.6 °F59.0 °F88 %29.95 in6.2 miENE (60°)6.9 mphMostly Cloudy
1:20 AM62.6 °F59.0 °F88 %29.95 in5.6 miENE (70°)5.8 mphPartly Cloudy
1:50 AM60.8 °F57.2 °F88 %29.95 in5.0 miEast (80°)6.9 mphPartly Cloudy
2:20 AM60.8 °F59.0 °F94 %29.92 in4.3 miENE (70°)9.2 mphScattered Clouds
2:50 AM60.8 °F57.2 °F88 %29.92 in3.7 miEast (80°)6.9 mph
3:20 AM60.8 °F57.2 °F88 %29.95 in2.8 miENE (60°)4.6 mphHaze
3:50 AM60.8 °F59.0 °F94 %29.95 in2.2 miENE (60°)6.9 mphHaze
4:20 AM60.8 °F59.0 °F94 %29.92 in1.6 miENE (70°)6.9 mphHaze
4:50 AM60.8 °F59.0 °F94 %29.92 in1.6 miEast (80°)8.1 mphHaze
5:20 AM60.8 °F59.0 °F94 %29.92 in1.9 miENE (70°)8.1 mphHaze
5:50 AM60.8 °F59.0 °F94 %29.92 in1.9 miENE (70°)6.9 mphHaze
6:20 AM60.8 °F59.0 °F94 %29.92 in2.2 miENE (60°)8.1 mphHaze
6:50 AM60.8 °F59.0 °F94 %29.92 in2.5 miEast (80°)8.1 mphHaze
7:20 AM60.8 °F59.0 °F94 %29.92 in3.1 miENE (70°)9.2 mphHaze
7:50 AM62.6 °F59.0 °F88 %29.92 in3.1 miENE (70°)6.9 mphHaze
8:20 AM62.6 °F59.0 °F88 %29.92 in3.1 miENE (70°)6.9 mphHaze
8:50 AM64.4 °F59.0 °F83 %29.92 in3.1 miENE (70°)8.1 mphHaze
9:20 AM64.4 °F59.0 °F83 %29.89 in3.1 miENE (60°)6.9 mphHaze
9:50 AM64.4 °F59.0 °F83 %29.92 in3.1 miESE (110°)4.6 mphHaze
10:20 AM64.4 °F60.8 °F88 %29.92 in3.1 miEast (80°)5.8 mphHaze
10:50 AM64.4 °F59.0 °F83 %29.92 in3.1 miESE (110°)4.6 mphHaze
11:20 AM64.4 °F60.8 °F88 %29.89 in3.1 miVariable3.5 mphHaze
11:50 AM64.4 °F60.8 °F88 %29.89 in3.1 miSSE (150°)4.6 mphHaze
12:20 PM64.4 °F60.8 °F88 %29.89 in2.5 miSSE (150°)5.8 mphHaze
12:50 PM64.4 °F60.8 °F88 %29.89 inVariable3.5 mphHaze
1:20 PM64.4 °F60.8 °F88 %29.86 in2.5 miVariable2.3 mphHaze
1:50 PM64.4 °F60.8 °F88 %29.86 in1.9 miSouth (170°)3.5 mphHaze
2:20 PM64.4 °F60.8 °F88 %29.86 in1.7 miVariable3.5 mphHaze
2:50 PM64.4 °F62.6 °F94 %29.86 in1.9 miSouth (180°)4.6 mphHaze
3:20 PM64.4 °F62.6 °F94 %29.86 in2.5 miSouth (180°)4.6 mphHaze
3:50 PM66.2 °F60.8 °F83 %29.83 in4.3 miSW (220°)6.9 mphMostly Cloudy
4:20 PM66.2 °F60.8 °F83 %29.83 in4.3 miSW (230°)9.2 mphMostly Cloudy
4:50 PM66.2 °F60.8 °F83 %29.83 in4.3 miWSW (240°)6.9 mphMostly Cloudy
5:20 PM64.4 °F60.8 °F88 %29.83 in5.0 miSW (230°)6.9 mphMostly Cloudy
5:50 PM64.4 °F59.0 °F83 %29.83 in6.2 miSW (220°)6.9 mphMostly Cloudy
6:20 PM64.4 °F59.0 °F83 %29.83 in5.0 miSW (230°)9.2 mphMostly Cloudy
6:50 PM64.4 °F59.0 °F83 %29.83 in5.0 miWSW (240°)5.8 mphScattered Clouds
7:20 PM64.4 °F59.0 °F83 %29.83 in4.3 miWSW (240°)5.8 mphScattered Clouds
7:50 PM64.4 °F59.0 °F83 %29.83 in5.0 miWSW (250°)5.8 mphScattered Clouds
8:20 PM62.6 °F57.2 °F82 %29.83 in5.6 miWSW (240°)3.5 mphPartly Cloudy
8:50 PM62.6 °F57.2 °F82 %29.83 in5.6 miSW (220°)4.6 mphPartly Cloudy
9:20 PM62.6 °F57.2 °F82 %29.83 inSW (220°)4.6 mphClear
9:50 PM60.8 °F55.4 °F82 %29.83 inVariable2.3 mphClear
10:20 PM57.2 °F55.4 °F94 %29.83 inSSW (210°)2.3 mphClear
10:50 PM55.4 °F53.6 °F94 %29.83 inVariable2.3 mphClear
11:20 PM55.4 °F53.6 °F94 %29.83 in5.6 miWSW (240°)3.5 mph
11:50 PM57.2 °F55.4 °F94 %29.83 in5.6 miSW (220°)5.8 mph
Hourly data recorded from EGKK, located miles away from London, England







STORIES FROM OUR PARTNERS